Powrót do katalogu

CINEMA

AktywnyNaukaVLEO
NORAD 38764·PAYLOAD·🇺🇸 United States

Wystrzelony Sep 13, 2012 z Vandenberg Space Force Base

Loading…

Następne Przeloty (najbliższe 24 godziny)

TLE

ŚwieżeSource: Space-Track

Epoka: Sep 14, 2026, 09:11 UTC

1 38764U 12048G   26257.38272494  .00030584  00000-0  47032-3 0  9993
2 38764  64.6397 139.9717 0024992 146.0846 214.1901 15.53754576131075

Śledź CINEMA w czasie rzeczywistym z AllMySat

Download on the App Store